Overview Statistics Trail Chart Weather Telemetry Raw packets
 

This is the latest recevied weather packets stored in our database for station/object OM8AGG-15. If no packets are shown the sender has not sent any weather packets the latest 10 day(s).

<< 5 6 7 8 9 10 11 >>
Time Temp. Humidity Pressure Rain* Wind** Luminosity Snow
1788448693 22.78° C 46% 1017.1 hPa - - - -
1788447793 22.78° C 44% 1017.2 hPa - - - -
1788446893 23.33° C 44% 1017.3 hPa - - - -
1788445993 23.33° C 45% 1017.4 hPa - - - -
1788445092 22.78° C 45% 1017.4 hPa - - - -
1788444192 24.44° C 41% 1017.7 hPa - - - -
1788443292 22.78° C 44% 1017.8 hPa - - - -
1788442392 23.89° C 42% 1017.9 hPa - - - -
1788441491 21.67° C 54% 1017.9 hPa - - - -
1788440591 21.11° C 57% 1017.8 hPa - - - -
1788439691 20.56° C 58% 1017.8 hPa - - - -
1788438791 20.56° C 58% 1018.1 hPa - - - -
1788437890 19.44° C 59% 1018.2 hPa - - - -
1788436989 19.44° C 49% 1018.2 hPa - - - -
1788436089 21.11° C 47% 1018.3 hPa - - - -
1788435188 24.44° C 37% 1018.5 hPa - - - -
1788434288 24.44° C 36% 1018.6 hPa - - - -
1788433388 26.67° C 32% 1018.9 hPa - - - -
1788432487 26.11° C 33% 1019.2 hPa - - - -
1788431589 25° C 35% 1019.1 hPa - - - -
1788430686 25° C 36% 1019.3 hPa - - - -
1788429786 24.44° C 37% 1019.4 hPa - - - -
1788428886 23.89° C 38% 1019.7 hPa - - - -
1788427986 21.11° C 48% 1019.5 hPa - - - -
1788427095 20° C 52% 1019.5 hPa - - - -

* Rain since midnight (hover to see other rain measurements)
** Current wind speed in m/s (hover to see current wind gust speed)